Location: Bailen
(14.1842°N, 120.7958°E)
Time: 18:08:10
(UTC+00:00)

Cosmos 1408 Rocket - Pass Details

Date: 12 January 2026
Orbit: 594 x 623 km, 82.6° (Epoch: 17 February)

Event Time Altitude Azimuth Distance (km) Brightness Sun altitude
Rises 21:35:20 0° 191° (SSW) 2,882 7.1 -12.0°
Reaches altitude 10° 21:37:36 10° 195° (SSW) 1,974 6.2 -11.5°
Maximum altitude 21:41:53 58° 274° (W) 716 3.6 -10.5°
Drops below altitude 10° 21:46:10 10° 354° (N) 1,960 5.9 -9.5°
Sets 21:48:24 0° 358° (N) 2,859 6.7 -9.0°
